Regional Weather Roundup
Issued by NWS Albany, NY

Current Version | Previous Version | Graphics & Text | Print | Product List | Glossary Off
Versions: 1 2 3 4 5 6 7 8 9 10 11 12 13 14 15 16 17 18 19 20 21 22 23 24 25 26 27 28 29 30 31 32 33 34 35 36 37 38 39 40 41 42 43 44 45 46 47 48 49 50

346
ASUS41 KALY 220510
RWRALY

NEW YORK STATE HOURLY WEATHER ROUNDUP
NATIONAL WEATHER SERVICE ALBANY NY
1200 AM EST WED NOV 22 2017

NOTE: "FAIR" INDICATES FEW OR NO CLOUDS BELOW 12,000 FEET WITH NO
SIGNIFICANT WEATHER AND/OR NO OBSTRUCTIONS TO VISIBILITY.

NYZ032-033-038>043-046>054-057>066-NYZ062>081-082-084-220600-
EAST


CITY           SKY/WX    TMP DP  RH WIND       PRES   REMARKS
ALBANY         PTCLDY    46  29  51 S14G22    29.95S
GLENS FALLS    PTCLDY    30  27  88 W5        29.94R WCI  25
POUGHKEEPSIE   CLOUDY    33  27  78 CALM      29.99F
NEWBURGH       CLEAR     37  32  81 CALM      30.00F
MONTGOMERY     PTCLDY    31  29  92 CALM      29.98F
WHITE PLAINS   PTCLDY    42  39  89 CALM      30.01F
ISLIP          CLOUDY    53  50  89 SW5       30.03F
NEW YORK CITY  CLOUDY    53  41  63 S9        30.02F
CENTRAL PARK   CLOUDY    54  40  59 VRB6      30.04F
$$

NYZ005>009-017-018-044>046-055-056-220600-
CENTRAL


CITY           SKY/WX    TMP DP  RH WIND       PRES   REMARKS
FULTON         CLOUDY    42  31  64 CALM      29.87R
SYRACUSE       CLOUDY    48  27  44 S9        29.87S
ROME           CLOUDY    48  27  44 S10       29.90S
ELMIRA         CLOUDY    42  30  62 W5        29.89S
BINGHAMTON     PTCLDY    44  29  55 SW10      29.90F
MONTICELLO     CLEAR     37  30  75 CALM      29.98F
$$

NYZ026>034-041>043-087-220600-
NORTH


CITY           SKY/WX    TMP DP  RH WIND       PRES   REMARKS
WATERTOWN      CLOUDY    49  39  68 W12G21    29.85R
FORT DRUM      NOT AVBL
OGDENSBURG     LGT RAIN  45  38  78 SW5       29.83R
MASSENA        CLOUDY    47  37  68 SW10      29.84R
SARANAC LAKE   CLOUDY    33  27  78 CALM      29.83R
PLATTSBURGH    CLOUDY    40  25  55 SW5       29.87R
$$

NYZ001>004-010>016-019>021-085-220600-
WEST


CITY           SKY/WX    TMP DP  RH WIND       PRES   REMARKS
NIAGARA FALLS  LGT RAIN  41  35  79 W13       29.90R
BUFFALO        LGT RAIN  39  37  92 NW9       29.90R WCI  33
DUNKIRK        LGT RAIN  40  38  93 NW10      29.93R WCI  33
JAMESTOWN      LGT RAIN  40  37  89 W12       29.90R WCI  33
WELLSVILLE     CLOUDY    48  27  44 W8        29.88S
ROCHESTER      CLOUDY    45  42  89 NW8       29.88R
PENN YAN       CLOUDY    45  29  53 SW3       29.87S
$$

             KEY
       WCI = WIND CHILL INDEX
       VSB = VISIBILITY
       HX  = HEAT INDEX
$$




USA.gov is the U.S. government's official web portal to all federal, state and local government web resources and services.